{"data":{"norad_id":64940,"intl_designator":"2025-158J","name":"STARLINK-34755","alt_names":[],"object_type":"PAYLOAD","status":"ACTIVE","operator":null,"country":"US","launch_date":"2025-07-27","launch_site_code":"AFWTR","launch_vehicle":null,"mission":null,"orbit_class":"UNKNOWN","rcs_meters":null,"size_class":null,"mass_kg":null,"dimensions":null,"purposes":["comms"],"wikipedia_slug":null,"has_3d_model":false,"image_url":null,"decayed_at":null,"tle_current":{"epoch":"2026-09-20T13:59:46.449600Z","epoch_age_seconds":117107,"freshness":"FRESH","line1":"1 64940U 25158J   26263.58317650  .00009694  00000+0  30217-3 0  9991","line2":"2 64940  97.2840 121.8635 0001854  91.3498 268.7957 15.33449042 64710","mean_motion":15.33449042,"eccentricity":0.0001854,"inclination_deg":97.284,"raan_deg":121.8635,"arg_perigee_deg":91.3498,"mean_anomaly_deg":268.7957,"bstar":0.00030217,"rev_number":6471,"period_min":93.905957130592,"perigee_km":464.26233228163,"apogee_km":466.79996443104,"semimajor_km":6843.6681483563,"source":"CELESTRAK","updated_at":"2026-09-21T09:00:35.487541Z"}}}